TimeCST,TemperatureF,Dew PointF,Humidity,Sea Level PressureIn,VisibilityMPH,Wind Direction,Wind SpeedMPH,Gust SpeedMPH,PrecipitationIn,Events,Conditions,WindDirDegrees,DateUTC
12:53 AM,10.0,6.1,84,29.95,10.0,South,5.8,-,N/A,,Partly Cloudy,190,2013-02-05 06:53:00
1:53 AM,10.0,6.1,84,29.93,10.0,South,8.1,-,N/A,,Partly Cloudy,190,2013-02-05 07:53:00
2:53 AM,12.9,9.0,84,29.92,10.0,SSW,11.5,-,N/A,,Overcast,200,2013-02-05 08:53:00
3:15 AM,14.0,10.4,86,29.85,2.0,SSW,10.4,-,0.00,Snow,Light Snow,210,2013-02-05 09:15:00
3:22 AM,14.0,10.4,86,29.85,1.2,SSW,9.2,-,0.00,Snow,Light Snow,200,2013-02-05 09:22:00
3:53 AM,14.0,10.9,88,29.88,1.2,South,12.7,-,0.01,Snow,Light Snow,190,2013-02-05 09:53:00
4:22 AM,15.8,12.2,86,29.81,2.0,SSW,13.8,-,0.01,Snow,Light Snow,200,2013-02-05 10:22:00
4:37 AM,15.8,12.2,86,29.81,4.0,SSW,12.7,-,0.01,Snow,Light Snow,200,2013-02-05 10:37:00
4:53 AM,15.1,12.0,88,29.88,6.0,SSW,10.4,-,0.01,,Overcast,200,2013-02-05 10:53:00
5:53 AM,16.0,12.9,88,29.85,5.0,SSW,15.0,-,N/A,,Overcast,200,2013-02-05 11:53:00
6:37 AM,15.8,14.0,93,29.78,4.0,SSW,13.8,-,N/A,,Mostly Cloudy,200,2013-02-05 12:37:00
6:53 AM,17.1,14.0,88,29.83,5.0,SSW,15.0,-,N/A,,Mostly Cloudy,200,2013-02-05 12:53:00
7:53 AM,18.0,15.1,88,29.83,4.0,SSW,12.7,-,N/A,,Mostly Cloudy,200,2013-02-05 13:53:00
8:34 AM,19.4,17.6,93,29.77,5.0,SSW,13.8,-,N/A,,Mostly Cloudy,210,2013-02-05 14:34:00
8:53 AM,21.0,18.0,88,29.82,5.0,SW,15.0,-,N/A,,Overcast,220,2013-02-05 14:53:00
9:13 AM,21.2,17.6,86,29.75,5.0,SW,17.3,-,N/A,,Overcast,220,2013-02-05 15:13:00
9:53 AM,21.9,19.0,89,29.83,5.0,SW,12.7,-,N/A,,Overcast,230,2013-02-05 15:53:00
10:53 AM,24.1,19.0,81,29.83,5.0,WSW,12.7,-,N/A,,Haze,240,2013-02-05 16:53:00
11:05 AM,24.8,19.4,80,29.78,1.0,WSW,11.5,-,0.00,Snow,Light Snow,250,2013-02-05 17:05:00
11:53 AM,26.1,21.9,84,29.85,4.0,West,11.5,-,0.01,,Overcast,280,2013-02-05 17:53:00
12:25 PM,26.6,21.2,80,29.79,1.8,West,12.7,-,0.00,Snow,Light Snow,280,2013-02-05 18:25:00
12:35 PM,26.6,21.2,80,29.79,3.0,West,15.0,-,0.00,Snow,Light Snow,270,2013-02-05 18:35:00
12:49 PM,26.6,21.2,80,29.80,1.8,WNW,12.7,-,0.00,Snow,Light Snow,290,2013-02-05 18:49:00
12:53 PM,26.1,23.0,88,29.86,1.0,WNW,13.8,-,0.00,Snow,Light Snow,290,2013-02-05 18:53:00
1:05 PM,26.6,23.0,86,29.80,3.0,West,12.7,-,0.00,Snow,Light Snow,280,2013-02-05 19:05:00
1:12 PM,26.6,23.0,86,29.80,4.0,WNW,10.4,-,0.00,,Overcast,290,2013-02-05 19:12:00
1:53 PM,28.9,24.1,82,29.87,6.0,NW,12.7,-,0.00,,Haze,320,2013-02-05 19:53:00
2:20 PM,28.4,24.8,86,29.83,7.0,NW,12.7,20.7,N/A,,Overcast,310,2013-02-05 20:20:00
2:34 PM,30.2,24.8,80,29.84,7.0,NW,12.7,20.7,N/A,,Overcast,310,2013-02-05 20:34:00
2:53 PM,30.0,24.1,79,29.90,8.0,NW,12.7,20.7,N/A,,Overcast,310,2013-02-05 20:53:00
3:53 PM,30.9,24.1,76,29.93,10.0,NW,17.3,-,N/A,,Overcast,310,2013-02-05 21:53:00
4:53 PM,30.9,24.1,76,29.96,10.0,NW,15.0,-,N/A,,Overcast,320,2013-02-05 22:53:00
5:53 PM,30.9,24.1,76,29.99,10.0,NNW,10.4,-,N/A,,Overcast,330,2013-02-05 23:53:00
6:53 PM,30.0,23.0,75,30.01,10.0,NNW,11.5,-,N/A,,Overcast,330,2013-02-06 00:53:00
7:53 PM,30.0,21.9,72,30.03,10.0,North,8.1,-,N/A,,Overcast,10,2013-02-06 01:53:00
8:53 PM,28.0,21.0,75,30.05,9.0,North,6.9,-,N/A,,Overcast,360,2013-02-06 02:53:00
9:53 PM,26.1,18.0,71,30.08,10.0,North,9.2,-,N/A,,Mostly Cloudy,10,2013-02-06 03:53:00
10:53 PM,24.1,17.1,75,30.11,10.0,North,4.6,-,N/A,,Scattered Clouds,350,2013-02-06 04:53:00
11:53 PM,18.0,14.0,84,30.13,8.0,NW,5.8,-,N/A,,Clear,320,2013-02-06 05:53:00